Home   Weather   Germany   Wyk auf Föhr   Past weeks
Flag for Germany

Past Weather in Wyk auf Föhr, Schleswig-Holstein, Germany — Yesterday and Last 2 Weeks

Currently: 39 °F. Partly sunny. (Weather station: Westerland / Sylt, Germany). See more current weather

Past Weather in Wyk auf Föhr — Graph

°F

Wyk auf Föhr Temperature Yesterday

Maximum temperature yesterday: 41 °F (at 9:20 am)
Minimum temperature yesterday: 36 °F (at 2:50 am)
Average temperature yesterday: 39 °F

High & Low Weather Summary for the Past Weeks

 TemperatureHumidityPressure
High54 °F (Feb 24, 7:50 pm)100% (Feb 21, 6:50 pm)30.69 "Hg (Feb 21, 6:50 pm)
Low28 °F (Mar 2, 1:50 am)57% (Mar 5, 1:50 pm)29.83 "Hg (Feb 20, 10:50 pm)
Average41 °F87%30.32 "Hg
* Reported Feb 20 3:20 pm — Mar 7 3:20 pm, Wyk auf Föhr. Weather by CustomWeather, © 2021

Note: Actual official high and low records may vary slightly from our data, if they occured in-between our weather recording intervals... More about our weather records

Wyk auf Föhr Weather History for the Previous 24 Hours

Scroll right to see more
 ConditionsComfort  
Time TempWeatherWind HumidityBarometerVisibility
3:20 pm
Sun, Mar 7
39 °FPartly sunny.14 mph93%30.09 "HgN/A
2:50 pm39 °FLight rain. Low clouds.15 mph93%30.09 "HgN/A
2:20 pm39 °FLight rain. More clouds than sun.16 mph100%30.09 "HgN/A
1:20 pm41 °FMostly cloudy.17 mph93%30.12 "HgN/A
12:50 pm41 °FOvercast.16 mph87%30.12 "HgN/A
12:20 pm41 °FOvercast.15 mph81%30.12 "HgN/A
11:50 am41 °FOvercast.16 mph81%30.12 "HgN/A
11:20 am41 °FMostly cloudy.15 mph81%30.12 "HgN/A
10:50 am39 °FPartly sunny.16 mph87%30.12 "HgN/A
10:20 am41 °FMostly cloudy.16 mph81%30.12 "HgN/A
9:50 am39 °FOvercast.16 mph87%30.15 "HgN/A
9:20 am39 °FOvercast.16 mph87%30.15 "HgN/A
8:20 am39 °FPassing clouds.17 mph87%30.15 "HgN/A
7:50 am39 °FSunny.17 mph87%30.15 "HgN/A
7:20 am37 °FScattered clouds.17 mph87%30.15 "HgN/A
6:50 am39 °FClear.17 mph75%30.18 "HgN/A
6:20 am37 °FPassing clouds.17 mph75%30.18 "HgN/A
5:50 am39 °FPassing clouds.20 mph75%30.18 "HgN/A
5:20 am39 °FPassing clouds.17 mph75%30.18 "HgN/A
4:50 am39 °FOvercast.16 mph81%30.21 "HgN/A
4:20 am39 °FOvercast.17 mph81%30.21 "HgN/A
3:50 am37 °FOvercast.18 mph87%30.21 "HgN/A
3:20 am37 °FOvercast.17 mph81%30.21 "HgN/A
2:20 am37 °FOvercast.18 mph75%30.27 "HgN/A
1:50 am37 °FOvercast.17 mph75%30.27 "HgN/A
1:20 am37 °FOvercast.18 mph75%30.27 "HgN/A
12:50 am37 °FOvercast.17 mph75%30.27 "HgN/A
12:20 am37 °FOvercast.18 mph75%30.30 "HgN/A
11:50 pm
Sat, Mar 6
37 °FOvercast.18 mph75%30.30 "HgN/A
11:20 pm37 °FOvercast.20 mph75%30.30 "HgN/A
10:50 pm39 °FOvercast.18 mph70%30.30 "HgN/A
10:20 pm39 °FOvercast.20 mph70%30.33 "HgN/A
9:50 pm39 °FOvercast.20 mph70%30.33 "HgN/A
9:20 pm39 °FOvercast.17 mph70%30.33 "HgN/A
8:50 pm39 °FOvercast.17 mph70%30.33 "HgN/A
8:20 pm39 °FOvercast.13 mph75%30.33 "HgN/A
7:50 pm39 °FOvercast.15 mph81%30.36 "HgN/A
7:20 pm39 °FOvercast.14 mph81%30.36 "HgN/A
6:50 pm37 °FOvercast.14 mph87%30.36 "HgN/A
6:20 pm37 °FMostly cloudy.17 mph87%30.36 "HgN/A
5:50 pm39 °FOvercast.15 mph75%30.36 "HgN/A
5:20 pm39 °FOvercast.16 mph75%30.36 "HgN/A
4:50 pm39 °FOvercast.17 mph75%30.39 "HgN/A
4:20 pm39 °FBroken clouds.14 mph75%30.39 "HgN/A
Weather by CustomWeather, © 2021

See weather overview